User: anonymous
Location: Unspecified
(0.0000°N, 0.0000°E)
Time: 04:18:35
(UTC+02:00)
Language:

Cosmos 1703 - Orbit

View from above orbital plane
View from above orbital plane
View from above satellite
View from above satellite

Ground track
Ground track

The orbit data is extracted from the following two-line orbital elements,

1 16262U 85108A   14204.46409526  .00000898  00000-0  59962-4 0  4845
2 16262 082.4903 207.4679 0011874 351.4512 008.6511 15.05784643559106
Epoch (UTC): 23 July 2014 11:08:17
Eccentricity: 0.0011874
inclination: 82.4903°
perigee height: 541 km
apogee height: 557 km
right ascension of ascending node: 207.4679°
argument of perigee: 351.4512°
revolutions per day: 15.05784643
mean anomaly at epoch: 8.6511°
orbit number at epoch: 55910

The dashed part of the orbit path shows where the satellite is in the earth's shadow,  

DLR